Change the Weather History Date:

Sunday, October 26, 2014

  Actual Average Record
Temperature  
Mean Temperature 55 °F 38 °F  
Max Temperature 71 °F 51 °F 75 °F (1924)
Min Temperature 38 °F 26 °F -2 °F (1919)
Degree Days  
Heating Degree Days 10 27  
Month to date heating degree days 416 542  
Since 1 July heating degree days 723 888  
Cooling Degree Days 0 0  
Month to date cooling degree days 0 0  
Year to date cooling degree days 425 455  
Growing Degree Days 4 (Base 50)    
Moisture  
Dew Point 33 °F    
Average Humidity 46    
Maximum Humidity 64    
Minimum Humidity 28    
Precipitation  
Precipitation 0.01 in 0.03 in 0.88 in (1989)
Month to date precipitation 0.18 0.79  
Year to date precipitation 9.96 12.97  
Sea Level Pressure  
Sea Level Pressure 29.55 in    
Wind  
Wind Speed 11 mph (SW)    
Max Wind Speed 28 mph    
Max Gust Speed 36 mph    
Visibility 10 miles    
Events Rain    
T = Trace of Precipitation, MM = Missing Value Source: NWS Daily Summary

Daily Weather History Graph

Daily Weather History Graph

Search for Another Location

Airport or City:

Trip Planner

Search our weather history database for the weather conditions in past years. The results will help you decide how hot, cold, wet, or windy it might be!

Date:

Astronomy

Oct. 26, 2014 Rise Set
Actual Time 8:30 AM CDT 6:45 PM CDT
Civil Twilight 7:58 AM CDT 7:17 PM CDT
Nautical Twilight 7:22 AM CDT 7:54 PM CDT
Astronomical Twilight 6:46 AM CDT 8:30 PM CDT
Moon 11:19 AM CDT (10/26) 8:50 PM CDT (10/26)
Length of Visible Light 11h 19m
Length of Day
10h 14m
Waxing Crescent, 8% of the Moon is Illuminated
Oct 26
Waxing Crescent
Oct 30
First Quarter
Nov 6
Full
Nov 14
Last Quarter
Nov 22
New

Hourly Weather History & Observations

Time (CDT) Temp. Windchill Dew Point Humidity Pressure Visibility Wind Dir Wind Speed Gust Speed Precip Events Conditions
12:52 AM 54.0 °F - 30.0 °F 40% 29.73 in 10.0 mi SE 13.8 mph - N/A   Clear
1:52 AM 53.1 °F - 30.0 °F 41% 29.68 in 10.0 mi SE 10.4 mph - N/A   Clear
2:52 AM 53.1 °F - 28.9 °F 40% 29.64 in 10.0 mi SE 6.9 mph - N/A   Clear
3:52 AM 51.1 °F - 30.0 °F 44% 29.59 in 10.0 mi SE 11.5 mph - N/A   Clear
4:52 AM 50.0 °F - 30.9 °F 48% 29.57 in 10.0 mi SE 9.2 mph - N/A   Clear
5:52 AM 48.9 °F - 32.0 °F 52% 29.54 in 10.0 mi SSE 6.9 mph - N/A   Clear
6:52 AM 46.9 °F - 32.0 °F 56% 29.52 in 10.0 mi SE 4.6 mph - N/A   Clear
7:52 AM 46.0 °F 43.1 °F 33.1 °F 61% 29.51 in 10.0 mi SSE 5.8 mph - N/A   Clear
8:52 AM 46.9 °F - 34.0 °F 61% 29.50 in 10.0 mi South 4.6 mph - N/A   Clear
9:52 AM 48.0 °F - 35.1 °F 61% 29.51 in 10.0 mi SW 9.2 mph - N/A   Clear
10:52 AM 50.0 °F - 35.1 °F 57% 29.50 in 10.0 mi WSW 6.9 mph - N/A   Clear
11:52 AM 57.0 °F - 36.0 °F 45% 29.50 in 10.0 mi West 11.5 mph - N/A   Clear
12:52 PM 55.0 °F - 39.9 °F 57% 29.51 in 10.0 mi WSW 10.4 mph - 0.00 in Rain Light Rain
1:52 PM 61.0 °F - 48.9 °F 64% 29.47 in 10.0 mi West 10.4 mph - 0.01 in   Mostly Cloudy
2:52 PM 70.0 °F - 42.1 °F 36% 29.44 in 10.0 mi West 12.7 mph - N/A   Clear
3:52 PM 70.0 °F - 36.0 °F 29% 29.45 in 10.0 mi West 23.0 mph 29.9 mph N/A   Clear
4:52 PM 68.0 °F - 36.0 °F 31% 29.47 in 10.0 mi West 24.2 mph 32.2 mph N/A   Clear
5:52 PM 66.0 °F - 36.0 °F 33% 29.50 in 10.0 mi West 23.0 mph 29.9 mph N/A   Clear
6:52 PM 60.1 °F - 30.0 °F 32% 29.54 in 10.0 mi West 20.7 mph - N/A   Clear
7:52 PM 55.0 °F - 28.9 °F 37% 29.57 in 10.0 mi West 12.7 mph - N/A   Clear
8:52 PM 50.0 °F - 28.0 °F 43% 29.60 in 10.0 mi West 11.5 mph - N/A   Clear
9:52 PM 46.9 °F - 27.0 °F 46% 29.61 in 10.0 mi West 11.5 mph - N/A   Clear
10:52 PM 37.9 °F 32.1 °F 26.1 °F 62% 29.62 in 10.0 mi West 8.1 mph - N/A   Clear
11:52 PM 41.0 °F 35.8 °F 27.0 °F 57% 29.62 in 10.0 mi WSW 8.1 mph - N/A   Clear